Regional Weather Roundup
Issued by NWS

Home | Current Version | Previous Version | Text Only | Print | Product List | Glossary Off
Versions: 1 2 3 4 5 6 7 8 9 10 11 12 13 14 15 16 17 18 19 20 21 22 23 24 25 26 27 28 29 30 31 32 33 34 35 36 37 38 39 40 41 42 43 44 45 46 47 48 49 50

158
ASUS44 KLIX 271910
RWRLA
LOUISIANA WEATHER ROUNDUP
NATIONAL WEATHER SERVICE NEW ORLEANS LA
100 PM CST THU NOV 27 2014

NOTE: "FAIR" INDICATES FEW OR NO CLOUDS BELOW 12,000 FEET WITH NO
      SIGNIFICANT WEATHER AND/OR OBSTRUCTIONS TO VISIBILITY.
      SKY/WX - SKY CONDITION AND SIGNIFICANT WEATHER.
      TMP - AIR TEMPERATURE.    DP   - DEWPOINT TEMPERATURE.
      RH  - RELATIVE HUMIDITY.  PRES - PRESSURE.
      HX  - HEAT INDEX.         WCI  - WIND CHILL INDEX.

*  THESE STATIONS ARE NOT NWS OR FAA STATIONS AND ARE NOT UNDER
   NWS QUALITY CONTROL.

LAZ040-048-061>063-065-066-069-272000-
SOUTHEAST LOUISIANA

CITY           SKY/WX    TMP DP  RH WIND       PRES   REMARKS
N.O. AUDUBON     N/A     58  33  39 MISG        N/A
N.O. INTL ARPT MOSUNNY   58  33  39 N13       30.39F
N.O. LAKEFRONT SUNNY     58  35  42 NW13      30.40F
N.O. DOWNTOWN* FAIR      57  32  38 N10G16    30.40F
SLIDELL        SUNNY     60  29  30 N13       30.38F
BATON ROUGE    SUNNY     60  28  29 NW10      30.41F
BOOTHVILLE     SUNNY     57  39  51 N8        30.38F
BELLE CHASSE   SUNNY     60  30  32 VRB7      30.38F
BOGALUSA*        N/A     60  29  30 N14       30.42S
NEW ROADS*     FAIR      57  31  37 NW8       30.43F
GONZALES*      FAIR      61  30  31 N9        30.39F
HAMMOND*       SUNNY     61  27  27 N10       30.41F
HOUMA*         SUNNY     63  34  34 N10       30.38F
PORT FOURCHON* CLEAR     61  36  39 N14       30.40F

$$

LAZ041-044-053-054-272000-
SOUTHWEST LOUISIANA

CITY           SKY/WX    TMP DP  RH WIND       PRES   REMARKS
LAKE CHARLES   SUNNY     63  29  27 NE9       30.42F
LAFAYETTE      SUNNY     60  32  34 NE15      30.42F
PATTERSON      SUNNY     63  34  34 N13         N/A
SALT POINT       N/A     67  31  26 NE5       30.38F
NEW IBERIA     SUNNY     62  30  29 N13       30.41F
CHENAULT AIRPK SUNNY     63  28  27 N12       30.43F

$$

LAZ027-028-272000-
CENTRAL LOUISIANA

CITY           SKY/WX    TMP DP  RH WIND       PRES   REMARKS
FORT POLK      SUNNY     58  27  30 N8        30.43F
ALEXANDRIA INT SUNNY     57  28  33 N8        30.44F
ALEXANDRIA     SUNNY     59  30  33 VRB7      30.46F

$$

LAZ001-002-272000-
NORTHWEST LOUISIANA

CITY           SKY/WX    TMP DP  RH WIND       PRES   REMARKS
SHREVEPORT     SUNNY     55  26  32 NE6       30.48F
BARKSDALE AFB  SUNNY     55  25  30 VRB5      30.48F
DTN SHREVEPORT SUNNY     54  25  32 N7        30.49F

$$

LAZ014-016-272000-
NORTHEAST LOUISIANA

CITY           SKY/WX    TMP DP  RH WIND       PRES   REMARKS
MONROE         SUNNY     52  31  44 VRB7      30.50F
TALLULAH       SUNNY     50  30  46 N9        30.48F

$$




USA.gov is the U.S. government's official web portal to all federal, state and local government web resources and services.